| time (UTC) | temp C | wind direction | speed KPH | gust KPH | rain 1hr cm | rain 24hr cm | rain mn cm | humidity % | barometer mb |
| 20260904211601 | 25 | 271 | 29.0 | 40.2 | 0.00 | 0.00 | 0.00 | 30 | 1007.1 |
| 20260904210107 | 24 | 279 | 32.2 | 43.5 | 0.00 | 0.00 | 0.00 | 30 | 1007.1 |
| 20260904204536 | 24 | 296 | 27.4 | 38.6 | 0.00 | 0.00 | 0.00 | 30 | 1007.0 |
| 20260904203043 | 23 | 292 | 30.6 | 40.2 | 0.00 | 0.00 | 0.00 | 31 | 1006.8 |
| 20260904201516 | 23 | 290 | 22.5 | 40.2 | 0.00 | 0.00 | 0.00 | 32 | 1006.8 |
| 20260904200016 | 22 | 257 | 22.5 | 33.8 | 0.00 | 0.00 | 0.00 | 33 | 1006.8 |
| 20260904194555 | 22 | 309 | 24.1 | 32.2 | 0.00 | 0.00 | 0.00 | 35 | 1006.6 |
| 20260904193057 | 22 | 258 | 24.1 | 32.2 | 0.00 | 0.00 | 0.00 | 36 | 1006.4 |
| 20260904191533 | 21 | 259 | 20.9 | 30.6 | 0.00 | 0.00 | 0.00 | 37 | 1006.2 |
| 20260904190029 | 21 | 262 | 22.5 | 30.6 | 0.00 | 0.00 | 0.00 | 37 | 1006.1 |
| 20260904184511 | 21 | 240 | 22.5 | 30.6 | 0.00 | 0.00 | 0.00 | 38 | 1006.1 |
| 20260904183010 | 20 | 237 | 24.1 | 30.6 | 0.00 | 0.00 | 0.00 | 40 | 1006.0 |
| 20260904181550 | 21 | 246 | 24.1 | 33.8 | 0.00 | 0.00 | 0.00 | 40 | 1006.0 |
| 20260904180049 | 20 | 244 | 19.3 | 29.0 | 0.00 | 0.00 | 0.00 | 40 | 1005.9 |
| 20260904174528 | 19 | 251 | 17.7 | 24.1 | 0.00 | 0.00 | 0.00 | 42 | 1005.8 |
| 20260904173031 | 18 | 242 | 12.9 | 20.9 | 0.00 | 0.00 | 0.00 | 42 | 1005.6 |
| 20260904171502 | 18 | 259 | 17.7 | 27.4 | 0.00 | 0.00 | 0.00 | 45 | 1005.6 |
| 20260904170100 | 17 | 261 | 19.3 | 30.6 | 0.00 | 0.00 | 0.00 | 49 | 1005.7 |
| 20260904164540 | 17 | 257 | 20.9 | 30.6 | 0.00 | 0.00 | 0.00 | 47 | 1005.6 |
| 20260904163040 | 17 | 244 | 20.9 | 33.8 | 0.00 | 0.00 | 0.00 | 47 | 1005.4 |
| 20260904161518 | 18 | 232 | 22.5 | 32.2 | 0.00 | 0.00 | 0.00 | 42 | 1005.1 |
| 20260904160027 | 19 | 220 | 14.5 | 19.3 | 0.00 | 0.00 | 0.00 | 41 | 1004.8 |
| 20260904154601 | 18 | 269 | 6.4 | 9.7 | 0.00 | 0.00 | 0.00 | 48 | 1004.5 |
| 20260904153101 | 17 | 14 | 6.4 | 9.7 | 0.00 | 0.00 | 0.00 | 48 | 1004.0 |
| 20260904151542 | 16 | 30 | 4.8 | 9.7 | 0.00 | 0.00 | 0.00 | 51 | 1004.1 |
| 20260904150045 | 16 | 45 | 8.0 | 11.3 | 0.00 | 0.00 | 0.00 | 52 | 1004.1 |
| 20260904144522 | 15 | 60 | 6.4 | 9.7 | 0.00 | 0.00 | 0.00 | 55 | 1004.1 |
| 20260904143023 | 15 | 48 | 8.0 | 11.3 | 0.00 | 0.00 | 0.00 | 55 | 1004.2 |
| 20260904141507 | 14 | 18 | 6.4 | 8.0 | 0.00 | 0.00 | 0.00 | 59 | 1004.4 |
| 20260904140004 | 13 | 18 | 3.2 | 8.0 | 0.00 | 0.00 | 0.00 | 61 | 1004.5 |
| 20260904134550 | 12 | 18 | 4.8 | 11.3 | 0.00 | 0.00 | 0.00 | 62 | 1004.5 |
| 20260904133052 | 12 | 5 | 6.4 | 11.3 | 0.00 | 0.00 | 0.00 | 64 | 1004.6 |
| 20260904131528 | 11 | 18 | 8.0 | 12.9 | 0.00 | 0.00 | 0.00 | 67 | 1004.3 |
| 20260904130043 | 10 | 13 | 11.3 | 16.1 | 0.00 | 0.00 | 0.00 | 69 | 1004.3 |
| 20260904124510 | 10 | 22 | 11.3 | 14.5 | 0.00 | 0.00 | 0.00 | 68 | 1004.0 |
| 20260904123008 | 10 | 35 | 9.7 | 14.5 | 0.00 | 0.00 | 0.00 | 66 | 1004.0 |
| 20260904121550 | 11 | 38 | 11.3 | 16.1 | 0.00 | 0.00 | 0.00 | 66 | 1004.1 |
| 20260904120054 | 11 | 34 | 9.7 | 12.9 | 0.00 | 0.00 | 0.00 | 65 | 1004.2 |
| 20260904114531 | 12 | 40 | 9.7 | 14.5 | 0.00 | 0.00 | 0.00 | 63 | 1004.2 |
| 20260904113034 | 12 | 5 | 11.3 | 16.1 | 0.00 | 0.00 | 0.00 | 63 | 1004.3 |
| 20260904111522 | 12 | 13 | 14.5 | 20.9 | 0.00 | 0.00 | 0.00 | 63 | 1004.3 |
| 20260904110010 | 12 | 20 | 11.3 | 17.7 | 0.00 | 0.00 | 0.00 | 62 | 1004.6 |
| 20260904104612 | 12 | 17 | 11.3 | 17.7 | 0.00 | 0.00 | 0.00 | 61 | 1004.7 |
| 20260904103051 | 12 | 15 | 11.3 | 17.7 | 0.00 | 0.00 | 0.00 | 61 | 1004.9 |
| 20260904101551 | 12 | 26 | 9.7 | 17.7 | 0.00 | 0.00 | 0.00 | 59 | 1004.9 |
| 20260904100033 | 12 | 14 | 11.3 | 17.7 | 0.00 | 0.00 | 0.00 | 59 | 1005.0 |
| 20260904094533 | 12 | 360 | 12.9 | 17.7 | 0.00 | 0.00 | 0.00 | 58 | 1005.0 |
| 20260904093015 | 12 | 22 | 9.7 | 17.7 | 0.00 | 0.00 | 0.00 | 59 | 1005.0 |
| 20260904091515 | 11 | 30 | 11.3 | 16.1 | 0.00 | 0.00 | 0.00 | 64 | 1005.2 |
| 20260904090058 | 10 | 13 | 8.0 | 11.3 | 0.00 | 0.00 | 0.00 | 65 | 1005.3 |
| 20260904084557 | 11 | 40 | 8.0 | 14.5 | 0.00 | 0.00 | 0.00 | 64 | 1005.6 |
| 20260904083037 | 11 | 26 | 14.5 | 17.7 | 0.00 | 0.00 | 0.00 | 63 | 1005.9 |
| 20260904081534 | 11 | 11 | 14.5 | 19.3 | 0.00 | 0.00 | 0.00 | 62 | 1006.1 |
| 20260904080014 | 11 | 12 | 12.9 | 17.7 | 0.00 | 0.00 | 0.00 | 62 | 1006.3 |
| 20260904074512 | 11 | 25 | 12.9 | 16.1 | 0.00 | 0.00 | 0.00 | 61 | 1006.4 |
| 20260904073059 | 12 | 15 | 12.9 | 17.7 | 0.00 | 0.00 | 0.00 | 60 | 1006.4 |
| 20260904071555 | 11 | 38 | 16.1 | 20.9 | 0.00 | 0.00 | 0.00 | 61 | 1006.5 |
| 20260904070039 | 11 | 44 | 16.1 | 19.3 | 0.00 | 0.00 | 0.00 | 63 | 1006.5 |
| 20260904064534 | 11 | 35 | 12.9 | 16.1 | 0.00 | 0.00 | 0.00 | 62 | 1006.5 |
| 20260904063013 | 13 | 44 | 12.9 | 19.3 | 0.00 | 0.00 | 0.00 | 56 | 1006.6 |
| 20260904061524 | 14 | 41 | 14.5 | 17.7 | 0.00 | 0.00 | 0.00 | 53 | 1006.7 |
| 20260904054555 | 14 | 22 | 11.3 | 17.7 | 0.00 | 0.00 | 0.00 | 53 | 1006.8 |
| 20260904053037 | 15 | 5 | 11.3 | 17.7 | 0.00 | 0.00 | 0.00 | 52 | 1006.8 |
| 20260904051555 | 14 | 11 | 11.3 | 17.7 | 0.00 | 0.00 | 0.00 | 52 | 1006.9 |
| 20260904050024 | 14 | 25 | 12.9 | 17.7 | 0.00 | 0.00 | 0.00 | 53 | 1006.8 |
| 20260904044525 | 13 | 23 | 11.3 | 14.5 | 0.00 | 0.00 | 0.00 | 55 | 1007.0 |
| 20260904043024 | 13 | 343 | 9.7 | 16.1 | 0.00 | 0.00 | 0.00 | 55 | 1007.0 |
| 20260904041523 | 13 | 20 | 8.0 | 17.7 | 0.00 | 0.00 | 0.00 | 55 | 1007.2 |
| 20260904040025 | 13 | 351 | 12.9 | 17.7 | 0.00 | 0.00 | 0.00 | 54 | 1007.1 |
| 20260904034522 | 13 | 15 | 9.7 | 16.1 | 0.00 | 0.00 | 0.00 | 55 | 1007.2 |
| 20260904033020 | 12 | 5 | 11.3 | 14.5 | 0.00 | 0.00 | 0.00 | 56 | 1007.2 |
| 20260904031515 | 13 | 19 | 8.0 | 14.5 | 0.00 | 0.00 | 0.00 | 52 | 1007.1 |
| 20260904030055 | 15 | 24 | 11.3 | 16.1 | 0.00 | 0.00 | 0.00 | 47 | 1007.0 |
| 20260904024554 | 17 | 13 | 12.9 | 24.1 | 0.00 | 0.00 | 0.00 | 44 | 1006.8 |
| 20260904023037 | 17 | 350 | 20.9 | 27.4 | 0.00 | 0.00 | 0.00 | 45 | 1006.4 |
| 20260904021537 | 17 | 348 | 14.5 | 19.3 | 0.00 | 0.00 | 0.00 | 45 | 1006.5 |
| 20260904020015 | 18 | 337 | 12.9 | 16.1 | 0.00 | 0.00 | 0.00 | 43 | 1006.4 |
| 20260904014513 | 20 | 331 | 11.3 | 22.5 | 0.00 | 0.00 | 0.00 | 39 | 1006.4 |
| 20260904013055 | 21 | 330 | 17.7 | 24.1 | 0.00 | 0.00 | 0.00 | 36 | 1006.3 |
| 20260904011554 | 22 | 336 | 14.5 | 19.3 | 0.00 | 0.00 | 0.00 | 34 | 1006.3 |
| 20260904010045 | 23 | 333 | 17.7 | 25.7 | 0.00 | 0.00 | 0.00 | 33 | 1006.2 |
| 20260904004535 | 24 | 289 | 12.9 | 20.9 | 0.00 | 0.00 | 0.00 | 30 | 1006.2 |
| 20260904003025 | 24 | 283 | 16.1 | 24.1 | 0.00 | 0.00 | 0.00 | 29 | 1006.3 |
| 20260904001518 | 24 | 271 | 19.3 | 29.0 | 0.00 | 0.00 | 0.00 | 26 | 1006.1 |
| 20260904000059 | 25 | 246 | 25.7 | 35.4 | 0.00 | 0.00 | 0.00 | 25 | 1006.0 |
| 20260903234556 | 25 | 254 | 25.7 | 33.8 | 0.00 | 0.00 | 0.00 | 26 | 1005.9 |
| 20260903233041 | 25 | 275 | 24.1 | 38.6 | 0.00 | 0.10 | 0.00 | 26 | 1005.8 |
| 20260903231536 | 25 | 259 | 29.0 | 41.8 | 0.00 | 0.10 | 0.00 | 26 | 1005.7 |
| 20260903230022 | 25 | 223 | 33.8 | 41.8 | 0.00 | 0.10 | 0.00 | 25 | 1005.7 |
| 20260903224516 | 25 | 223 | 35.4 | 48.3 | 0.00 | 0.10 | 0.00 | 25 | 1005.5 |
| 20260903223059 | 25 | 246 | 35.4 | 48.3 | 0.00 | 0.10 | 0.00 | 25 | 1005.5 |
| 20260903221557 | 25 | 216 | 22.5 | 46.7 | 0.00 | 0.10 | 0.00 | 26 | 1005.4 |
| 20260903220049 | 25 | 229 | 30.6 | 43.5 | 0.00 | 0.10 | 0.00 | 27 | 1005.1 |
| 20260903214538 | 25 | 244 | 32.2 | 49.9 | 0.00 | 0.10 | 0.00 | 26 | 1005.0 |
| 20260903213020 | 25 | 237 | 35.4 | 51.5 | 0.00 | 0.10 | 0.00 | 27 | 1005.0 |